[[{"header":{"parameterUnit":"m.s-1","parameterCategory":1,"la1":30.2991,"la2":30.254,"lo1":-89.0895,"lo2":-89.0444,"dy":0.0017,"dx":0.0017,"nx":28,"ny":28,"refTime":"2026-03-02T09:00:00:Z","depth":0,"parameterNumber":2,"parameterNumberName":"U-component_of_WINDS"},"data":[0,0,0,0,0,0,0,0,0,0,0,0,0,0,0,0,0,0,0,0,0,0,0,0,0,0,0,0,0,0,0,0,0,0,0,0,0,0,0,0,0,0,0,0,0,0,0,0,0,0,0,0,0,0,0,0,0,0,-3.1505,-3.1506,0,-3.1548,-3.1549,-3.1549,-3.1524,-3.1523,-3.1522,-3.1521,-3.1568,-3.157,-3.1572,0,0,0,0,0,0,0,0,0,0,0,0,0,-3.1407,-3.1409,-3.1505,-3.1506,-3.1506,-3.1548,-3.1549,-3.1549,-3.1525,-3.1523,-3.1522,-3.152,-3.1567,-3.157,-3.1572,0,0,0,0,0,0,0,0,0,0,0,0,0,-3.145,-3.1409,-3.1505,-3.1499,-3.1499,-3.1548,-3.1549,-3.1549,-3.1525,-3.1523,-3.1521,-3.152,-3.1566,-3.1569,-3.1573,-3.1631,0,0,-3.1584,-3.1585,0,0,0,0,0,0,0,0,-3.1447,-3.1453,-3.15,-3.15,-3.15,-3.1529,-3.1531,-3.1577,-3.1525,-3.1515,-3.1521,-3.1519,-3.1556,-3.1561,-3.1573,-3.1633,-3.1635,-3.1584,-3.1586,-3.1588,-3.1589,0,0,0,0,0,0,0,-3.1444,-3.1451,-3.1522,-3.15,-3.15,-3.1496,-3.15,-3.1539,-3.1546,-3.1516,-3.1514,-3.1519,-3.1556,-3.1569,-3.1574,-3.1636,-3.1584,-3.1587,-3.1589,-3.1591,-3.1748,-3.175,0,0,0,0,0,0,-3.1441,-3.1449,-3.1521,-3.1524,-3.1468,-3.1499,-3.1503,-3.1521,-3.1545,-3.1547,-3.1521,-3.1518,-3.1564,-3.1569,-3.1575,-3.1645,-3.1588,-3.1591,-3.1593,-3.1746,-3.1748,-3.175,0,0,0,0,0,0,-3.1439,-3.1448,-3.1519,-3.1486,-3.1495,-3.1502,-3.1523,-3.1523,-3.1536,-3.1549,-3.155,-3.1533,-3.1563,-3.157,-3.1617,-3.1646,-3.1593,-3.1596,-3.1743,-3.1746,-3.1749,-3.1786,0,0,0,0,0,0,-3.1436,-3.1447,-3.1468,-3.1486,-3.1496,-3.156,-3.1525,-3.1525,-3.1542,-3.1539,-3.156,-3.1562,-3.1562,-3.1612,-3.1621,-3.165,-3.1599,-3.1741,-3.1745,-3.1748,-3.1782,-3.179,-3.1796,0,0,0,0,0,-3.1433,-3.1477,-3.147,-3.1478,-3.1523,-3.1561,-3.1567,-3.1565,-3.1545,-3.1567,-3.1575,-3.1562,-3.1642,-3.1617,-3.1627,-3.1658,-3.1739,-3.1744,-3.1748,-3.1779,-3.1788,-3.1796,0,0,0,0,0,0,-3.1463,-3.148,-3.1471,-3.1522,-3.1541,-3.1557,-3.1585,-3.1575,-3.16,-3.1596,-3.1593,-3.1598,-3.1648,-3.1658,-3.163,-3.1716,-3.1687,-3.1694,-3.1707,-3.1717,-3.1724,-3.172,-3.1601,0,0,0,0,0,-3.1476,-3.1505,-3.1518,-3.1562,-3.1572,-3.1577,-3.1593,-3.159,-3.1609,-3.1617,-3.1629,-3.1649,-3.1679,-3.1698,-3.1726,-3.1784,-3.1788,-3.181,-3.1817,-3.1823,-3.1829,-3.186,-3.187,-3.1765,-3.1765,-3.1765,0,0,-3.1502,-3.1515,-3.1533,-3.1569,-3.1582,-3.1613,-3.1583,-3.1617,-3.1641,-3.1623,-3.1667,-3.1677,-3.1699,-3.1752,-3.1776,-3.1762,-3.1859,-3.1829,-3.1833,-3.1836,-3.1866,-3.1876,-3.1885,-3.1768,-3.1768,-3.1767,0,0,-3.1566,-3.1578,-3.1617,-3.1631,-3.1652,-3.1655,-3.1665,-3.1683,-3.1688,-3.1733,-3.1721,-3.1749,-3.18,-3.1817,-3.1832,-3.1904,-3.1893,-3.1913,-3.1951,-3.1982,-3.199,-3.1997,-3.2023,-3.2032,-3.1919,-3.1919,-3.1919,0,-3.1597,-3.1642,-3.1638,-3.1673,-3.1689,-3.1674,-3.1714,-3.1728,-3.1758,-3.177,-3.1754,-3.1818,-3.1832,-3.1889,-3.1906,-3.1919,-3.193,-3.191,-3.1989,-3.1996,-3.2003,-3.2028,-3.2037,-3.1922,-3.1921,-3.1921,-3.1921,0,-3.1678,-3.171,-3.1739,-3.1767,-3.1786,-3.1824,-3.1827,-3.1848,-3.1843,-3.1849,-3.1896,-3.1912,-3.1943,-3.1957,-3.1953,-3.2014,-3.2004,-3.1989,-3.196,-3.2015,-3.2038,-3.2048,-3.1925,-3.1924,-3.1923,-3.1923,0,0,-3.1761,-3.1787,-3.1798,-3.1811,-3.1833,-3.1858,-3.1896,-3.1926,-3.1944,-3.1966,-3.1997,-3.2041,-3.2027,-3.2045,-3.2043,-3.207,-3.2127,-3.2052,-3.2052,-3.2065,-3.2195,-3.2206,-3.2217,-3.212,-3.2122,-3.2123,-3.2193,0,-3.1827,-3.189,-3.1889,-3.1948,-3.1978,-3.1965,-3.1998,-3.2016,-3.2022,-3.205,-3.2058,-3.2089,-3.2068,-3.2078,-3.2105,-3.2114,-3.2153,-3.2109,-3.215,-3.2152,-3.2144,-3.2229,-3.2241,-3.2306,-3.2202,-3.2204,-3.2205,0,-3.1911,-3.1934,-3.1997,-3.2016,-3.2028,-3.2057,-3.2085,-3.2111,-3.2132,-3.2135,-3.2155,-3.2149,-3.2189,-3.2159,-3.2214,-3.2184,-3.2201,-3.2209,-3.2211,-3.2215,-3.2181,-3.2235,-3.2327,-3.2336,-3.2219,-3.2218,-3.2217,0,-3.1965,-3.2013,-3.2056,-3.2068,-3.2091,-3.2112,-3.2123,-3.2142,-3.216,-3.2185,-3.2198,-3.2227,-3.2244,-3.2267,-3.227,-3.2248,-3.2326,-3.2296,-3.233,-3.233,-3.2346,-3.2345,-3.2442,-3.2358,-3.2358,-3.2358,-3.2357,0,-3.2038,-3.2076,-3.2081,-3.2108,-3.2151,-3.215,-3.2194,-3.2203,-3.222,-3.225,-3.2241,-3.2269,-3.2271,-3.2301,-3.2304,-3.2349,-3.2356,-3.2361,-3.2361,-3.2361,-3.2361,-3.2372,-3.2367,-3.236,-3.236,-3.2359,-3.2359,0,-3.2105,-3.211,-3.2156,-3.2175,-3.218,-3.2212,-3.2228,-3.2254,-3.2261,-3.2298,-3.2307,-3.2317,-3.2351,-3.2357,-3.2397,-3.2399,-3.2453,-3.2449,-3.2446,-3.2445,-3.2478,-3.2475,-3.2586,-3.26,-3.2507,-3.2508,-3.2508,0,-3.2151,-3.218,-3.2202,-3.2221,-3.2232,-3.2263,-3.2281,-3.2282,-3.2302,-3.2329,-3.2353,-3.2386,-3.2412,-3.2467,-3.2479,-3.251,-3.2507,-3.2543,-3.2511,-3.2511,-3.2507,-3.2505,-3.2509,-3.2549,-3.255,-3.2551,-3.2552,0,-3.2232,-3.2233,-3.226,-3.2288,-3.231,-3.2333,-3.2354,-3.237,-3.2373,-3.2397,-3.2431,-3.2452,-3.2493,-3.2526,-3.2557,-3.257,-3.2562,-3.2562,-3.2571,-3.2572,-3.2569,-3.2571,-3.2462,-3.2559,-3.2559,-3.2558,-3.2558,-3.2557,-3.229,-3.2316,-3.2335,-3.2366,-3.2382,-3.2402,-3.2428,-3.2437,-3.2465,-3.2498,-3.2497,-3.2535,-3.2557,-3.2598,-3.2613,-3.2644,-3.2632,-3.2646,-3.2649,-3.2652,-3.2656,-3.2564,-3.2649,-3.2649,-3.2649,-3.2649,-3.2649,0,-3.2371,-3.2383,-3.2411,-3.244,-3.2465,-3.2454,-3.2478,-3.2499,-3.2532,-3.2553,-3.2579,-3.2619,-3.2652,-3.2666,-3.2699,-3.2721,-3.2718,-3.2729,-3.2727,-3.2731,-3.2664,-3.2653,-3.2731,-3.2731,-3.2731,-3.2731,-3.2731,-3.2731,-3.2415,-3.2458,-3.2462,-3.2514,-3.2526,-3.2562,-3.2576,-3.2596,-3.2612,-3.2657,-3.2684,-3.2693,-3.2711,-3.2745,-3.2775,-3.2779,-3.2791,-3.2804,-3.2806,-3.2744,-3.2735,-3.2727,-3.2716,-3.2807,-3.2807,-3.287,-3.2871,-3.2871]},{"header":{"parameterUnit":"m.s-1","parameterCategory":1,"la1":30.2991,"la2":30.254,"lo1":-89.0895,"lo2":-89.0444,"dy":0.0017,"dx":0.0017,"nx":28,"ny":28,"refTime":"2026-03-02T09:00:00:Z","depth":0,"parameterNumber":3,"parameterNumberName":"V-component_of_WINDS"},"data":[0,0,0,0,0,0,0,0,0,0,0,0,0,0,0,0,0,0,0,0,0,0,0,0,0,0,0,0,0,0,0,0,0,0,0,0,0,0,0,0,0,0,0,0,0,0,0,0,0,0,0,0,0,0,0,0,0,0,2.2995,2.2995,0,2.2941,2.294,2.2939,2.294,2.294,2.2941,2.2942,2.2883,2.2881,2.2879,0,0,0,0,0,0,0,0,0,0,0,0,0,2.3098,2.3096,2.2995,2.2994,2.2994,2.2941,2.294,2.2939,2.2939,2.294,2.2941,2.2942,2.2884,2.2882,2.2879,0,0,0,0,0,0,0,0,0,0,0,0,0,2.3049,2.3096,2.2995,2.2988,2.2986,2.2941,2.294,2.2939,2.2939,2.294,2.2941,2.2942,2.2885,2.2882,2.2879,2.2836,0,0,2.2868,2.2867,0,0,0,0,0,0,0,0,2.3052,2.3046,2.2989,2.2988,2.2987,2.2948,2.2955,2.2905,2.2939,2.2957,2.2942,2.2943,2.2904,2.2899,2.2886,2.2834,2.2831,2.2868,2.2866,2.2865,2.2864,0,0,0,0,0,0,0,2.3056,2.3048,2.2974,2.2989,2.2987,2.2986,2.2981,2.2945,2.2925,2.2956,2.2955,2.2949,2.2903,2.289,2.2885,2.283,2.2868,2.2865,2.2863,2.2862,2.2742,2.2741,0,0,0,0,0,0,2.3061,2.3051,2.2975,2.2972,2.3023,2.2984,2.2977,2.2959,2.2925,2.2921,2.2948,2.2949,2.2895,2.2889,2.2883,2.2833,2.2865,2.2862,2.286,2.2744,2.2742,2.2741,0,0,0,0,0,0,2.3063,2.3054,2.2977,2.3011,2.3002,2.2981,2.2961,2.2958,2.2944,2.292,2.2916,2.2938,2.2895,2.2888,2.2849,2.2831,2.286,2.2857,2.2745,2.2743,2.2742,2.2731,0,0,0,0,0,0,2.3066,2.3055,2.3039,2.3011,2.3,2.2944,2.2959,2.2956,2.2939,2.2939,2.2909,2.2905,2.2896,2.2854,2.2845,2.2827,2.2854,2.2746,2.2744,2.2742,2.2733,2.273,2.2726,0,0,0,0,0,2.307,2.3037,2.3038,2.3029,2.2979,2.2943,2.2937,2.2927,2.2937,2.2921,2.2906,2.2906,2.2834,2.285,2.284,2.282,2.2748,2.2745,2.2742,2.2735,2.273,2.2726,0,0,0,0,0,0,2.3062,2.3033,2.3034,2.2991,2.297,2.2943,2.2922,2.2922,2.2896,2.2898,2.2886,2.2879,2.2841,2.2827,2.2844,2.2779,2.2792,2.2787,2.279,2.2785,2.2782,2.2786,2.2852,0,0,0,0,0,2.3055,2.3029,2.3005,2.297,2.2959,2.2943,2.2926,2.2921,2.2898,2.2888,2.287,2.2847,2.282,2.2802,2.2774,2.2731,2.2725,2.2713,2.271,2.2707,2.2703,2.2681,2.2676,2.2732,2.2732,2.2732,0,0,2.3041,2.3022,2.3006,2.2968,2.2951,2.2924,2.2935,2.2905,2.2885,2.2884,2.2846,2.2832,2.2806,2.2765,2.2746,2.2752,2.2687,2.2704,2.2702,2.2699,2.2678,2.2672,2.2668,2.273,2.2731,2.2731,0,0,2.3002,2.2985,2.2955,2.2938,2.2912,2.2901,2.2894,2.2868,2.2859,2.2822,2.2821,2.2796,2.2748,2.273,2.2715,2.2671,2.2671,2.2662,2.2644,2.2623,2.2618,2.2614,2.26,2.2595,2.2659,2.2659,2.2659,0,2.2988,2.2947,2.2939,2.291,2.2893,2.2893,2.2862,2.2845,2.2812,2.28,2.2808,2.2749,2.2731,2.2687,2.2677,2.2664,2.2656,2.2666,2.262,2.2616,2.2612,2.2598,2.2593,2.2658,2.2658,2.2658,2.2658,0,2.2931,2.2904,2.2882,2.2852,2.2833,2.2803,2.279,2.2772,2.2769,2.2757,2.272,2.2699,2.2668,2.2657,2.2653,2.2613,2.2618,2.2622,2.2636,2.2606,2.2593,2.2587,2.2657,2.2657,2.2657,2.2657,0,0,2.2884,2.2851,2.2844,2.2831,2.2803,2.2781,2.2752,2.2723,2.2709,2.2686,2.2661,2.2622,2.2627,2.2609,2.2603,2.2584,2.2553,2.2591,2.2591,2.2586,2.2509,2.2506,2.25,2.2553,2.2552,2.2551,2.2512,0,2.2843,2.2792,2.2785,2.2739,2.2714,2.2714,2.2689,2.2669,2.2658,2.2635,2.2623,2.2595,2.2603,2.2593,2.2574,2.256,2.2537,2.2563,2.253,2.2529,2.2538,2.2493,2.2489,2.2453,2.2506,2.2505,2.2505,0,2.2788,2.2766,2.2718,2.2696,2.2685,2.2663,2.2637,2.2615,2.2593,2.2586,2.2568,2.2565,2.2535,2.2549,2.2508,2.2526,2.2512,2.2504,2.2502,2.2499,2.2515,2.2489,2.2441,2.2436,2.2496,2.2497,2.2497,0,2.276,2.2718,2.2685,2.2673,2.2646,2.2631,2.2618,2.2598,2.2582,2.2559,2.2549,2.2522,2.2508,2.2488,2.2478,2.2489,2.2438,2.2451,2.2432,2.2432,2.2421,2.2422,2.2371,2.2411,2.2411,2.2412,2.2412,0,2.2715,2.2686,2.2672,2.2652,2.262,2.2612,2.2581,2.2569,2.2551,2.2528,2.2526,2.2505,2.2492,2.2469,2.2461,2.2429,2.2422,2.2417,2.2415,2.2417,2.2418,2.2408,2.2411,2.241,2.241,2.2411,2.2411,0,2.2678,2.2668,2.2632,2.261,2.2604,2.2582,2.2563,2.2543,2.2533,2.2505,2.2497,2.2481,2.2455,2.2443,2.2409,2.2403,2.2367,2.2367,2.2375,2.2375,2.2357,2.2359,2.2298,2.229,2.2335,2.2334,2.2334,0,2.2651,2.2629,2.2605,2.2591,2.2579,2.2555,2.2539,2.253,2.2514,2.2489,2.2472,2.2446,2.2424,2.2381,2.2366,2.2341,2.2341,2.2321,2.2337,2.234,2.2342,2.2343,2.2342,2.2318,2.2318,2.2317,2.2317,0,2.2603,2.2599,2.2577,2.2554,2.2536,2.2516,2.2497,2.2485,2.2474,2.2455,2.2429,2.2412,2.2379,2.2353,2.2327,2.2314,2.2314,2.2312,2.2307,2.2309,2.2315,2.2313,2.2368,2.2314,2.2314,2.2314,2.2315,2.2315,2.257,2.2552,2.2533,2.2509,2.2495,2.2477,2.2459,2.2447,2.2425,2.2398,2.2394,2.2366,2.2346,2.2312,2.2298,2.2276,2.2281,2.2272,2.227,2.2269,2.2268,2.2319,2.2271,2.2271,2.2271,2.2271,2.2271,0,2.2524,2.2512,2.249,2.2465,2.2446,2.2449,2.2428,2.2413,2.2388,2.237,2.2349,2.232,2.2295,2.2279,2.2254,2.2239,2.2239,2.2233,2.2234,2.2232,2.2265,2.2273,2.2234,2.2234,2.2234,2.2234,2.2234,2.2234,2.2497,2.2467,2.2461,2.2424,2.2412,2.2385,2.2374,2.2358,2.2344,2.2311,2.2291,2.2281,2.2264,2.2239,2.2216,2.2212,2.2204,2.2198,2.2194,2.2225,2.2229,2.2233,2.224,2.2196,2.2196,2.2163,2.2163,2.2163]}]]